Retour au catalogue

STARLINK-34271

ActifCommunicationsVLEO
NORAD 64384·PAYLOAD·🇺🇸 United States

Lancé Jun 13, 2025 depuis Cape Canaveral Space Force Station

Loading…

Prochains Passages (prochaines 24 heures)

TLE

FraisSource: CelesTrak SupGP

Époque: Sep 15, 2026, 03:35 UTC

1 64384C 25127Q   26258.14979167 -.00007597  00000+0 -27523-3 0  2588
2 64384  42.9994 190.0409 0000892 272.0248 311.6647 15.27576297    11

Suivez STARLINK-34271 en temps réel avec AllMySat

Download on the App Store